199  
ASUS43 KFSD 240710  
RWRFSD  
 
WEATHER ROUNDUP FOR SE SOUTH DAKOTA/SW MINNESOTA/NW IOWA  
NATIONAL WEATHER SERVICE SIOUX FALLS SD  
200 AM CDT SUN MAR 24 2019  
 
NOTE: "FAIR" INDICATES FEW OR NO CLOUDS BELOW 12,000 FEET WITH NO  
SIGNIFICANT WEATHER AND OR S TO VISIBILITY
.  
 
 
SDZ038>040-050-052>070-240800-  
SOUTHEAST SOUTH DAKOTA  
 
CITY SKY/WX TMP DP RH WIND PRES REMARKS
 
BROOKINGS CLOUDY 40 37 89 NE6 30.06  
CHAMBERLAIN CLOUDY 42 41 97 NE6 30.03F  
HURON CLOUDY 39 37 92 NE7 30.06S  
MADISON CLOUDY 37 37 100 NE7 30.05F  
MITCHELL CLOUDY 42 37 82 E6 30.04F  
SIOUX FALLS CLOUDY 43 37 79 NE7 30.03F  
WINNER CLOUDY 41 36 82 NE5 30.02S  
YANKTON LGT RAIN 42 38 85 NE6 30.00F  

 
 
MNZ071-072-080-081-089-090-097-098-240800-  
SOUTHWEST MINNESOTA  
 
CITY SKY/WX TMP DP RH WIND PRES REMARKS
 
FAIRMONT CLOUDY 41 37 86 NE6 30.08F  
JACKSON CLOUDY 41 36 81 E7 30.07F  
LUVERNE CLOUDY 41 36 81 NE5 30.05S  
MARSHALL LGT RAIN 38 37 97 CALM 30.09F FOG  
MONTEVIDEO CLOUDY 39 37 93 CALM 30.09S  
PIPESTONE CLOUDY 39 37 93 E5 30.05F  
REDWOOD FALLS LGT RAIN 40 38 93 SE6 30.09F  
TRACY DRIZZLE 39 39 99 CALM 30.08F  
WINDOM CLOUDY 37 36 93 NE6 30.06F  
WORTHINGTON CLOUDY 39 37 92 NE7 30.06F  

 
 
IAZ001>003-012>014-020>022-031-032-NEZ013-014-SDZ071-240800-  
NORTHWEST IOWA  
 
CITY SKY/WX TMP DP RH WIND PRES REMARKS
 
CHEROKEE CLOUDY 42 39 88 NE3 30.02F  
DENISON CLOUDY 45 41 87 E8 30.00S  
ESTHERVILLE CLOUDY 39 37 92 E5 30.05F  
LE MARS CLOUDY 45 39 81 NE10 30.01S  
SHELDON CLOUDY 43 43 100 NE7 30.01F  
SIOUX CITY CLOUDY 43 38 82 E9 29.98F  
SPENCER CLOUDY 42 37 82 E8 30.04F  
STORM LAKE CLOUDY 41 41 100 NE9 29.98F  

 
 
ABBREVIATIONS USED IN REMARKS  
TC - TEMPERATURE IN CELSIUS  
WCI - WIND CHILL INDEX  
HX - HEAT INDEX  
VSB - VISIBILITY  
 
 
 
CLICK HERE TO GO TO PREVIOUS BULLETINS.

The Nexlab SD Page
The Nexlab IA Page
The Nexlab MN Page
The Nexlab NE Page Main Text Page